EW3517 Weather Reports


Display with metric or nautical units.
time (UTC)temp
F
wind
direction
speed
MPH
gust
MPH
rain 1hr
in
rain 24hr
in
rain mn
in
humidity
%
barometer
mb
20260905181526 98 108 0.0 0.0 0.00 0.00 0.00 38 1009.5
20260905180022 97 80 0.0 0.0 0.00 0.00 0.00 42 1009.4
20260905174619 97 241 0.0 0.0 0.00 0.00 0.00 42 1009.8
20260905173018 97 143 0.0 0.0 0.00 0.00 0.00 41 1009.9
20260905171516 96 243 0.0 0.0 0.00 0.00 0.00 42 1010.0
20260905170014 96 236 0.0 0.0 0.00 0.00 0.00 44 1010.1
20260905164515 95 142 0.0 0.0 0.00 0.00 0.00 44 1010.2
20260905163012 96 287 0.0 0.0 0.00 0.00 0.00 44 1010.2
20260905161508 95 169 0.0 0.0 0.00 0.00 0.00 46 1010.3
20260905160009 94 259 0.0 0.0 0.00 0.00 0.00 49 1010.3
20260905154601 93 159 0.0 0.0 0.00 0.00 0.00 49 1010.2
20260905153106 92 148 0.0 0.0 0.00 0.00 0.00 51 1010.1
20260905151552 91 250 0.0 0.0 0.00 0.00 0.00 53 1010.1
20260905150048 90 228 0.0 0.0 0.00 0.00 0.00 53 1010.1
20260905144548 89 238 0.0 0.0 0.00 0.00 0.00 54 1010.1
20260905143041 88 251 0.0 0.0 0.00 0.00 0.00 55 1010.0
20260905141540 87 136 0.0 0.0 0.00 0.00 0.00 56 1010.0
20260905140038 86 144 0.0 0.0 0.00 0.00 0.00 58 1010.0
20260905134537 85 227 0.0 0.0 0.00 0.00 0.00 60 1010.0
20260905133035 84 240 0.0 0.0 0.00 0.00 0.00 61 1009.8
20260905131548 83 232 0.0 0.0 0.00 0.00 0.00 63 1009.8
20260905130038 82 193 0.0 0.0 0.00 0.00 0.00 65 1009.7
20260905124529 81 129 0.0 0.0 0.00 0.00 0.00 66 1009.5
20260905123026 80 153 0.0 0.0 0.00 0.00 0.00 66 1009.4
20260905121524 80 171 0.0 0.0 0.00 0.00 0.00 66 1009.4
20260905120020 81 172 0.0 0.0 0.00 0.00 0.00 66 1009.2
20260905114519 81 172 0.0 0.0 0.00 0.00 0.00 65 1009.0
20260905113017 81 240 0.0 0.0 0.00 0.00 0.00 65 1009.0
20260905111517 82 240 0.0 0.0 0.00 0.00 0.00 64 1009.1
20260905110011 82 243 0.0 0.0 0.00 0.00 0.00 63 1009.1
20260905104510 82 128 0.0 0.0 0.00 0.00 0.00 62 1009.1
20260905103013 83 219 0.0 0.0 0.00 0.00 0.00 62 1009.1
20260905101506 83 203 0.0 0.0 0.00 0.00 0.00 61 1009.0
20260905100005 84 240 0.0 0.0 0.00 0.00 0.00 60 1008.9
20260905094506 84 171 0.0 0.0 0.00 0.00 0.00 59 1009.0
20260905093100 84 249 0.0 0.0 0.00 0.00 0.00 59 1008.9
20260905093001 85 95 0.0 0.0 0.00 0.00 0.00 59 1008.9
20260905091603 85 154 0.0 0.0 0.00 0.00 0.00 58 1009.0
20260905090058 85 299 0.0 0.0 0.00 0.00 0.00 57 1009.0
20260905084615 85 313 0.0 0.0 0.00 0.00 0.00 57 1008.9
20260905083055 86 265 0.0 0.0 0.00 0.00 0.00 57 1008.8
20260905081553 86 146 0.0 0.0 0.00 0.00 0.00 56 1008.7
20260905080055 86 142 0.0 0.0 0.00 0.00 0.00 56 1008.6
20260905074557 87 301 0.0 0.0 0.00 0.00 0.00 55 1008.5
20260905073101 87 355 0.0 0.0 0.00 0.00 0.00 55 1008.6
20260905071550 86 158 0.0 0.0 0.00 0.00 0.00 55 1008.7
20260905070049 86 146 0.0 0.0 0.00 0.00 0.00 56 1008.8
20260905064547 86 136 0.0 0.0 0.00 0.00 0.00 56 1008.8
20260905063045 86 114 0.0 0.0 0.00 0.00 0.00 55 1008.9
20260905061544 87 140 0.0 0.0 0.00 0.00 0.00 55 1008.9
20260905060043 87 140 0.0 0.0 0.00 0.00 0.00 54 1008.9
20260905054546 87 148 0.0 0.0 0.00 0.00 0.00 54 1008.9
20260905053052 87 152 0.0 0.0 0.00 0.00 0.00 53 1008.9
20260905051539 88 142 0.0 0.0 0.00 0.00 0.00 52 1008.9
20260905050036 88 180 0.0 0.0 0.00 0.00 0.00 52 1008.9
20260905044535 89 139 0.0 0.0 0.00 0.00 0.00 51 1008.8
20260905043034 89 159 0.0 0.0 0.00 0.00 0.00 51 1008.9
20260905041537 89 129 0.0 0.0 0.00 0.00 0.00 51 1008.9
20260905040032 90 146 0.0 0.0 0.00 0.00 0.00 50 1008.8
20260905034532 90 146 0.0 0.0 0.00 0.00 0.00 49 1008.9
20260905033042 91 163 0.0 0.0 0.00 0.00 0.00 49 1008.7
20260905031531 90 360 0.0 0.0 0.00 0.00 0.00 49 1008.5
20260905030031 90 169 0.0 0.0 0.00 0.00 0.00 49 1008.1
20260905024530 91 129 0.0 0.0 0.00 0.00 0.00 48 1008.0
20260905023029 91 152 0.0 0.0 0.00 0.00 0.00 47 1007.8
20260905021535 92 149 0.0 0.0 0.00 0.00 0.00 46 1007.5
20260905020031 93 171 0.0 0.0 0.00 0.00 0.00 46 1007.3
20260905014529 93 186 0.0 0.0 0.00 0.00 0.00 45 1007.0
20260905013026 94 164 0.0 0.0 0.00 0.00 0.00 45 1006.8
20260905011526 94 159 0.0 0.0 0.00 0.00 0.00 44 1006.7
20260905010027 95 142 0.0 0.0 0.00 0.00 0.00 43 1006.5
20260905004532 95 101 0.0 0.0 0.00 0.00 0.00 42 1006.4
20260905003025 96 150 0.0 0.0 0.00 0.00 0.00 42 1006.4
20260905001528 97 152 0.0 0.0 0.00 0.00 0.00 41 1006.3
20260905000024 97 163 0.0 0.0 0.00 0.00 0.00 40 1006.3
20260904234523 98 124 0.0 0.0 0.00 0.00 0.00 39 1006.2
20260904233021 98 177 0.0 0.0 0.00 0.00 0.00 39 1006.3
20260904231529 98 150 0.0 1.0 0.00 0.00 0.00 39 1006.2
20260904230022 98 160 0.0 0.0 0.00 0.00 0.00 39 1006.2
20260904224519 99 189 0.0 0.0 0.00 0.00 0.00 39 1006.3
20260904223021 99 140 0.0 0.0 0.00 0.00 0.00 40 1006.1
20260904221515 99 189 0.0 0.0 0.00 0.00 0.00 40 1006.3
20260904220013 98 125 0.0 0.0 0.00 0.00 0.00 40 1006.2
20260904214512 99 150 0.0 0.0 0.00 0.00 0.00 40 1006.3
20260904213016 100 109 0.0 0.0 0.00 0.00 0.00 39 1006.5
20260904211515 100 163 0.0 0.0 0.00 0.00 0.00 38 1006.6
20260904210020 101 132 0.0 0.0 0.00 0.00 0.00 38 1006.6
20260904204505 100 144 0.0 0.0 0.00 0.00 0.00 39 1006.9
20260904203002 100 39 0.0 1.0 0.00 0.00 0.00 38 1007.1
20260904201635 100 126 0.0 0.0 0.00 0.00 0.00 39 1007.2
20260904200111 100 175 0.0 0.0 0.00 0.00 0.00 37 1007.3
20260904194606 99 106 0.0 0.0 0.00 0.00 0.00 38 1007.5
20260904193052 99 148 0.0 0.0 0.00 0.00 0.00 40 1007.6
20260904191555 98 167 0.0 1.0 0.00 0.00 0.00 40 1007.7
20260904190048 98 121 0.0 0.0 0.00 0.00 0.00 41 1007.9
20260904184546 97 176 0.0 0.0 0.00 0.00 0.00 43 1008.1
20260904183044 97 69 0.0 0.0 0.00 0.00 0.00 43 1008.2